www.pogodaiklimat.ru

Погода и климат >> Архив погоды >> Россия >> Краснодарский край >> Джубга


ПОГОДА в Джубге

  • Прогноз погоды в Джубге
  • Монитор погоды в Джубге

АРХИВ ПОГОДЫ в Джубге

Время (UTC), дата Ветер
(напр.,м/с)
 
Видим.   Явления Облачность Т
(С)
Тd
(С)
f
(%)
Тe
(С)
Тes
(С)
Комфортность P
(гПа)
Po
(гПа)
Тmin
(С)
Tmax
(С)
R
(мм)
R24
(мм)
S
(см)
12 17.01 Ю 1 10 км ясно +9.1 -2.1 45 +9 +11 1016.4 1013.9
15 17.01 С 2 10 км ясно +3.5 -1.7 69 +1 +1 1018.9 1016.3 +9.2
18 17.01 С 3 10 км ясно +0.4 -4.4 70 -4 -4 1020.6 1017.9
21 17.01 С 2 10 км ясно -1.5 -4.3 81 -5 -5 1021.9 1019.2
00 18.01 С 3 10 км 8/0
[Ac As]
-1.2 -3.9 82 -6 -6 1022.6 1019.9
03 18.01 ЮВ 2 10 км 10/10 600 м
[Cb cap]
+6.1 +2.0 75 +4 +4 1021.9 1019.3 -1.7
06 18.01 ЮВ 2 10 км 8/8 600 м
[Cb cap]
+6.9 +2.4 73 +5 +5 1022.9 1020.2
09 18.01 ЮВ 3-10
{10}
10 км 9/9 600 м
[Cb cap]
+7.6 +2.7 71 +5 +5 1023.2 1020.6
12 18.01 ЮВ 2
{10}
10 км 8/8 600 м
[Cb cap]
+8.5 +2.6 66 +7 +7 1022.2 1019.6
15 18.01 ЮВ 2
{11}
10 км 8/8 600 м
[Cb cap]
+8.0 +2.5 68 +6 +6 1022.2 1019.6 +9.6
18 18.01 Ю 2 10 км 8/8 600 м
[Cb cap]
+8.0 +1.8 65 +6 +6 1022.2 1019.6
21 18.01 Ю 2 10 км 8/8 600 м
[Cb cap]
+8.1 +2.2 66 +6 +6 1022.1 1019.5
00 19.01 ЮВ 2 н/о н/о +7.7 +3.3 74 +6 +6 1021.2 1018.6
03 19.01 ЮВ 3 10 км 6/6 600 м
[Cb cap]
+7.7 +3.3 74 +5 +5 1020.5 1017.9 +7.7
06 19.01 ЮВ 2
{10}
10 км 10/10 600 м
[Cb cap]
+7.8 +3.4 74 +6 +6 1020.9 1018.3 +7.5
09 19.01 ЮВ 3
{10}
10 км 10/10 600 м
[Cb cap]
+8.4 +3.3 70 +6 +6 1020.9 1018.3
12 19.01 ЮВ 2
{11}
10 км 10/10 600 м
[Cb cap]
+8.7 +3.7 71 +7 +7 1020.6 1018.0
15 19.01 ЮВ 2
{10}
10 км 10/10 600 м
[Cb cap]
+8.7 +4.4 74 +7 +7 1021.0 1018.4 +8.8
18 19.01 ЮВ 2
{10}
10 км 10/10 600 м
[Cb cap]
+8.5 +5.0 79 +7 +7 1021.0 1018.4
21 19.01 ЮВ 2
{10}
10 км в посл. час ливневой дождь 10/0 600 м
[]
+8.6 +5.0 78 +7 +7 1021.7 1019.1
00 20.01 ЮВ 5-11
{12}
10 км слаб. ливневой дождь 10/10 600 м
[Cb cap]
+6.3 +3.5 82 +2 +2 1022.4 1019.8
03 20.01 ЮВ 2
{13}
10 км слаб. ливневой дождь 10/10 600 м
[Cb cap]
+6.3 +3.3 81 +4 +4 1023.1 1020.4 +6.0 6
06 20.01 ЮВ 3
{10}
10 км {ливн. осадки} 10/10 600 м
[Cb cap]
+7.1 +3.4 77 +4 +4 1023.4 1020.8
09 20.01 ЮВ 4-10
{11}
10 км {ливн. осадки} 10/10 600 м
[Cb cap]
+7.7 +4.1 78 +4 +4 1023.5 1020.9
12 20.01 Ю 2
{10}
10 км {ливн. осадки} 10/10 600 м
[Cb cap]
+8.0 +5.1 82 +6 +6 1022.8 1020.2
15 20.01 ЮВ 3-10
{10}
10 км 10/10 600 м
[Cb cap]
+8.6 +4.8 77 +6 +6 1022.3 1019.7 +8.6 0.4
18 20.01 ЮВ 1
{10}
10 км 10/10 600 м
[Cb cap]
+8.2 +3.6 73 +8 +8 1022.0 1019.4
21 20.01 штиль 0 10 км 4/3 600 м
[Cb cap Ac As]
+5.6 +2.9 83 +5 +5 1021.9 1019.3
00 21.01 С 2 10 км 3/1 600 м
[Cb cap Ac trans]
+4.0 +1.9 86 +1 +1 1020.9 1018.3
03 21.01 ЮВ 1 10 км 3/0
[Ac As]
+6.5 +2.2 74 +6 +6 1019.1 1016.5 +2.8
06 21.01 ЮВ 3
{11}
10 км 1/0
[Ci fib]
+9.4 +5.0 74 +7 +8 1018.4 1015.9
09 21.01 ЮВ 3-10
{10}
10 км 10/0
[Ac As]
+10.4 +5.6 72 +8 +10 1018.0 1015.4
12 21.01 ЮВ 3
{10}
10 км 6/0
[Ac As]
+12.1 +5.3 63 +11 +12 1015.7 1013.2
15 21.01 ЮВ 2
{10}
10 км 10/4 600 м
[Cb cap Ac As]
+10.0 +5.3 73 +9 +9 1015.5 1012.9 +12.1
18 21.01 Ю 3 10 км слаб. ливневой дождь 10/10 600 м
[Cb cap]
+9.4 +6.2 80 +7 +7 1016.0 1013.5
21 21.01 Ю 3 10 км слаб. ливневой дождь 10/10 600 м
[Cb cap]
+9.0 +6.5 84 +7 +7 1015.9 1013.3
00 22.01 Ю 1 10 км {ливн. осадки} 10/10 600 м
[Cb cap]
+8.7 +6.3 85 +8 +8 1016.4 1013.8
03 22.01 З 2 10 км 10/10 600 м
[Cb cap]
+8.1 +3.4 72 +6 +6 1016.6 1014.1 +7.7 4
06 22.01 СВ 1 10 км 8/3 600 м
[St Ac As]
+5.8 +3.1 83 +5 +5 1018.0 1015.4 +5.8
09 22.01 СЗ 2 10 км 9/9 600 м
[Cb cap]
+4.8 +2.1 83 +2 +3 1019.3 1016.4
12 22.01 СЗ 3 10 км 10/8 600 м
[Cb cap Ac As]
+3.2 -0.3 78 -1 -1 1020.7 1017.8
15 22.01 С 4 10 км 4/1 600 м
[St Ac trans]
+1.8 +0.7 92 -3 -3 1021.7 1018.7 +8.1
18 22.01 СЗ 3 10 км 8/3 600 м
[St Ac As]
+2.0 +0.4 89 -2 -2 1021.9 1019.0
21 22.01 СЗ 2 10 км 10/0
[As op]
+2.1 +0.2 87 -1 -1 1022.1 1019.2
00 23.01 СЗ 2 10 км 10/0
[Ac As]
+1.8 +1.0 94 -2 -2 1021.0 1018.1
03 23.01 СЗ 2 10 км 10/0
[Ac As]
+1.4 +0.3 92 -2 -2 1020.3 1017.3 +1.4
06 23.01 С 2 10 км 10/10 600 м
[Cb cap]
+1.9 +1.1 94 -2 -2 1019.0 1016.1
09 23.01 ЮВ 2 10 км 10/3 600 м
[Cb cap Ac und]
+9.0 +2.5 64 +8 +8 1017.1 1014.5
12 23.01 ЮВ 3 10 км 8/0
[Ac As]
+11.0 +4.6 65 +9 +10 1015.1 1012.5
15 23.01 ЮВ 1 10 км 3/0
[Ac As]
+9.5 +5.4 76 +9 +9 1014.3 1011.7 +11.2
18 23.01 ЮВ 2 10 км 3/0
[Ac As]
+10.5 +5.1 69 +9 +9 1013.6 1011.1
21 23.01 ЮВ 3 10 км ясно +11.2 +5.0 66 +10 +10 1013.8 1011.2
00 24.01 ЮВ 2
{11}
10 км 3/0
[Ac As]
+10.9 +5.6 70 +10 +10 1012.9 1010.4
03 24.01 ЮВ 3 10 км 3/0
[Ac As]
+10.5 +5.2 70 +9 +9 1012.3 1009.8 +9.5
06 24.01 ЮВ 4
{10}
10 км 3/0
[Ac As Cs]
+11.1 +5.1 66 +9 +9 1012.3 1009.8

 

Местоположение метеостанции Джубга (Краснодарский край, Россия): широта 44.33 долгота 38.72 высота над уровнем моря 23 м.

В архиве по умолчанию представлена погода в Джубге за последнюю неделю. Архивные данные за месяц целиком и за предыдущие месяцы, начиная с января 2011 года, Вы можете получить, выбрав интересующий диапазон дат из раскрывающегося списка и нажав кнопку "Ввод!".


*Определитесь, кто Вы:
робот инопланетянин человек

Внимание! Время в таблицах - всемирное. Для получения местного времени необходимо прибавить поправку, которая равна 3 ч.

Смотрите также архив погоды в соседних городах и на ближайших метеорологических станциях:

Погода в Туапсе (Краснодарский край, Россия) (38 км)
Погода в Горном (Краснодарский край, Россия) (44 км)
Погода в Горячем Ключе (Краснодарский край, Россия) (45 км)
Погода в Магри (Краснодарский край, Россия) (49 км)
Погода в Геленджике (Краснодарский край, Россия) (57 км)
Погода в Лазаревском (Краснодарский край, Россия) (68 км)
Погода в Новороссийске (Краснодарский край, Россия) (81 км)
Погода в Краснодаре (Краснодарский край, Россия) (84 км)
Погода в Кичмае (Краснодарский край, Россия) (84 км)
Погода в Крымске (Краснодарский край, Россия) (87 км)

Пояснения к столбцам:

Ветер - указаны скорость ветра в м/с - средняя за 10 мин, порывы в срок и между сроками (в фигурных скобках) и направление, откуда дует ветер: С - северный, СВ - северо-восточный, В - восточный, ЮВ - юго-восточный, Ю - южный, ЮЗ - юго-западный, З - западный, СЗ - северо-западный.
Видимость - горизонтальная дальность видимости в метрах или километрах. При видимости от 1 до 10 км при отсутствии осадков обычно наблюдается дымка, при ухудшении видимости до 1 км и менее - туман. В сухую погоду видимость может ухудшаться дымом, пылью или мглою.
Явления - указаны атмосферные явления, наблюдавшиеся в срок или в последний час перед сроком; фигурными скобками обозначены явления, наблюдавшиеся между сроками (за 1-3 часа до срока); квадратными скобками обозначены град или гололедные отложения с указанием их диаметра в мм.
Облачность - указаны через наклонную черту общая и нижняя облачность в баллах и высота нижней границы облаков в метрах; квадратными скобками обозначены формы облаков: Ci - перистые, Cs - перисто-слоистые, Cc - перисто-кучевые, Ac - высококучевые, As - высокослоистые, Sc - слоисто-кучевые, Ns - слоисто-дождевые, Cu - кучевые, Cb - кучево-дождевые. Подробнее классификацию облаков см. в Атласе облаков (PDF).
T - Температура воздуха - температура, измеренная на высоте 2 м над землей.
Td - Температура точки росы - температура, при понижении до которой содержащийся в воздухе водяной пар достигнет насыщения.
f - Относительная влажность воздуха - влажноcть воздуха, измеренная на высоте 2 м над землей.
Te - Эффективная температура - температура, которую ощущает одетый по сезону человек в тени. Характеристика душности погоды. При расчете учитывается влияние влажности воздуха и скорости ветра на теплоощущения человека.
Tes - Эффективная температура на солнце - температура, которую ощущает человек, с поправкой на солнечный нагрев. Характеристика знойности погоды. Зависит от высоты солнца над горизонтом, облачности и скорости ветра. Ночью, в пасмурную погоду, а также при ветре 12 м/с и более поправка равна нулю.
P - Атмосферное давление - приведенное к уровню моря атмосферное давление.
Po - Атмосферное давление - измеренное на уровне метеостанции атмосферное давление.
Tmin - Минимальная температура - минимум температуры воздуха на высоте 2 м над землей.
Tmax - Максимальная температура - максимум температуры воздуха на высоте 2 м над землей.
R - Количество осадков - Количество выпавших осадков за период времени, мм. При наведении курсора мыши на число - период времени, за который выпало указанное количество осадков.
R24 - Количество осадков - Количество выпавших осадков за 24 часа, мм.
S - Снежный покров - Высота снежного покрова, см. При наведении курсора мыши на число - состояние снежного покрова и степень покрытия местности в баллах.